Swainsboro, GA

9:55 AM EDT on April 27, 2017 (GMT -0400)
Emanuel County

Weather History for KSBO - June, 2013

Change the Weather History Date:

Thursday, June 13, 2013

  Actual Average Record
Temperature  
Mean Temperature 84 °F -  
Max Temperature 95 °F 90 °F 96 °F (2016)
Min Temperature 73 °F 64 °F 69 °F (2014)
Cooling Degree Days 19    
Growing Degree Days 34 (Base 50)    
Moisture  
Dew Point 73 °F    
Average Humidity 72    
Maximum Humidity 100    
Minimum Humidity 41    
Precipitation  
Precipitation 0.00 in - - ()
Sea Level Pressure  
Sea Level Pressure 29.90 in    
Wind  
Wind Speed 5 mph (West)    
Max Wind Speed 16 mph    
Max Gust Speed 25 mph    
Visibility 9 miles    
Events      
Averages and records for this station are not official NWS values.
T = Trace of Precipitation, MM = Missing Value Source: NWS Daily Summary

Daily Weather History Graph

Daily Weather History Graph

Search for Another Location

Airport or City:

Trip Planner

Search our weather history database for the weather conditions in past years. The results will help you decide how hot, cold, wet, or windy it might be!

Date:

Astronomy

Jun. 13, 2013 Rise Set
Actual Time 6:21 AM EDT 8:38 PM EDT
Civil Twilight 5:52 AM EDT 9:06 PM EDT
Nautical Twilight 5:17 AM EDT 9:41 PM EDT
Astronomical Twilight 4:40 AM EDT 10:19 PM EDT
Moon 10:44 AM EDT (6/13) 11:58 PM EDT (6/13)
Length of Visible Light 15h 13m
Length of Day
14h 16m
Waxing Crescent, 21% of the Moon is Illuminated
Jun 13
Waxing Crescent
Jun 16
First Quarter
Jun 23
Full
Jun 30
Last Quarter
Jul 8
New

Hourly Weather History & Observations

Time (EDT) Temp. Heat Index Dew Point Humidity Pressure Visibility Wind Dir Wind Speed Gust Speed Precip Events Conditions
12:15 AM 77.0 °F - 77.0 °F 100% 29.98 in 7.0 mi Calm Calm - N/A   Clear
12:35 AM 77.0 °F - 77.0 °F 100% 29.98 in 10.0 mi Calm Calm - N/A   Clear
12:55 AM 77.0 °F - 77.0 °F 100% 29.98 in 7.0 mi Calm Calm - N/A   Clear
1:15 AM 77.0 °F - 77.0 °F 100% 29.97 in 7.0 mi Calm Calm - N/A   Clear
1:35 AM 77.0 °F - 77.0 °F 100% 29.97 in 7.0 mi Calm Calm - N/A   Clear
1:55 AM 77.0 °F - 77.0 °F 100% 29.96 in 10.0 mi Calm Calm - N/A   Clear
2:15 AM 75.2 °F - 75.2 °F 100% 29.95 in 7.0 mi Calm Calm - N/A   Clear
2:35 AM 75.2 °F - 75.2 °F 100% 29.95 in 7.0 mi Calm Calm - N/A   Clear
2:55 AM 75.2 °F - 75.2 °F 100% 29.95 in 7.0 mi WNW 3.5 mph - N/A   Clear
3:15 AM 75.2 °F - 75.2 °F 100% 29.95 in 10.0 mi Calm Calm - N/A   Clear
3:35 AM 75.2 °F - 75.2 °F 100% 29.94 in 7.0 mi WNW 4.6 mph - N/A   Clear
3:55 AM 75.2 °F - 75.2 °F 100% 29.94 in 10.0 mi West 3.5 mph - N/A   Clear
4:15 AM 75.2 °F - 75.2 °F 100% 29.94 in 10.0 mi WNW 3.5 mph - N/A   Clear
4:35 AM 75.2 °F - 75.2 °F 100% 29.94 in 10.0 mi West 3.5 mph - N/A   Clear
4:55 AM 75.2 °F - 75.2 °F 100% 29.94 in 10.0 mi West 3.5 mph - N/A   Clear
5:15 AM 75.2 °F - 75.2 °F 100% 29.94 in 7.0 mi Calm Calm - N/A   Clear
5:35 AM 73.4 °F - 73.4 °F 100% 29.94 in 7.0 mi WNW 3.5 mph - N/A   Clear
5:55 AM 73.4 °F - 73.4 °F 100% 29.94 in 7.0 mi WNW 3.5 mph - N/A   Clear
6:15 AM 73.4 °F - 73.4 °F 100% 29.94 in 7.0 mi NW 4.6 mph - N/A   Clear
6:35 AM 73.4 °F - 73.4 °F 100% 29.95 in 7.0 mi NW 4.6 mph - N/A   Clear
6:55 AM 75.2 °F - 75.2 °F 100% 29.95 in 7.0 mi Calm Calm - N/A   Clear
7:15 AM 75.2 °F - 75.2 °F 100% 29.95 in 10.0 mi Calm Calm - N/A   Clear
7:35 AM 77.0 °F - 77.0 °F 100% 29.95 in 10.0 mi Calm Calm - N/A   Clear
7:55 AM 78.8 °F - 77.0 °F 94% 29.95 in 10.0 mi WNW 3.5 mph - N/A   Clear
8:15 AM 78.8 °F - 77.0 °F 94% 29.95 in 10.0 mi WNW 5.8 mph - N/A   Clear
8:35 AM 80.6 °F 87.1 °F 77.0 °F 89% 29.95 in 10.0 mi West 5.8 mph - N/A   Clear
8:55 AM 82.4 °F 90.9 °F 77.0 °F 84% 29.95 in 10.0 mi West 5.8 mph - N/A   Clear
9:15 AM 82.4 °F 88.2 °F 73.4 °F 74% 29.95 in 10.0 mi West 9.2 mph - N/A   Clear
9:35 AM 84.2 °F 90.9 °F 73.4 °F 70% 29.95 in 10.0 mi West 5.8 mph - N/A   Clear
9:55 AM 86.0 °F 93.4 °F 73.4 °F 66% 29.95 in 10.0 mi West 9.2 mph 17.3 mph N/A   Clear
10:15 AM 86.0 °F 93.4 °F 73.4 °F 66% 29.95 in 10.0 mi West 8.1 mph - N/A   Clear
10:35 AM 87.8 °F 95.6 °F 73.4 °F 62% 29.95 in 10.0 mi WNW 9.2 mph - N/A   Clear
10:55 AM 87.8 °F 95.6 °F 73.4 °F 62% 29.95 in 10.0 mi WNW 10.4 mph 20.7 mph N/A   Clear
11:15 AM 87.8 °F 93.8 °F 71.6 °F 58% 29.95 in 10.0 mi WNW 11.5 mph 17.3 mph N/A   Scattered Clouds
11:35 AM 89.6 °F 98.2 °F 73.4 °F 59% 29.94 in 10.0 mi NW 11.5 mph 17.3 mph N/A   Scattered Clouds
11:55 AM 89.6 °F 96.2 °F 71.6 °F 55% 29.94 in 10.0 mi West 11.5 mph 17.3 mph N/A   Scattered Clouds
12:15 PM 89.6 °F 96.2 °F 71.6 °F 55% 29.93 in 10.0 mi West 13.8 mph 20.7 mph N/A   Scattered Clouds
12:35 PM 91.4 °F 98.4 °F 71.6 °F 52% 29.92 in 10.0 mi WNW 12.7 mph 25.3 mph N/A   Scattered Clouds
12:55 PM 91.4 °F 98.4 °F 71.6 °F 52% 29.92 in 10.0 mi West 9.2 mph 25.3 mph N/A   Scattered Clouds
1:15 PM 91.4 °F 96.8 °F 69.8 °F 49% 29.91 in 10.0 mi West 16.1 mph 20.7 mph N/A   Scattered Clouds
1:35 PM 91.4 °F 96.8 °F 69.8 °F 49% 29.90 in 10.0 mi West 15.0 mph 23.0 mph N/A   Scattered Clouds
1:55 PM 91.4 °F 98.4 °F 71.6 °F 52% 29.90 in 10.0 mi SW 13.8 mph - N/A   Scattered Clouds
2:15 PM 91.4 °F 98.4 °F 71.6 °F 52% 29.88 in 10.0 mi West 9.2 mph 19.6 mph N/A   Scattered Clouds
2:35 PM 91.4 °F 96.8 °F 69.8 °F 49% 29.88 in 10.0 mi West 13.8 mph 21.9 mph N/A   Scattered Clouds
2:55 PM 93.2 °F 98.8 °F 69.8 °F 46% 29.87 in 10.0 mi WSW 13.8 mph 19.6 mph N/A   Scattered Clouds
3:15 PM 93.2 °F 98.8 °F 69.8 °F 46% 29.86 in 10.0 mi WSW 15.0 mph 20.7 mph N/A   Scattered Clouds
3:35 PM 93.2 °F 98.8 °F 69.8 °F 46% 29.85 in 10.0 mi West 15.0 mph 20.7 mph N/A   Scattered Clouds
3:55 PM 95.0 °F 99.5 °F 68.0 °F 41% 29.85 in 10.0 mi West 13.8 mph 25.3 mph N/A   Clear
4:15 PM 95.0 °F 101.3 °F 69.8 °F 44% 29.84 in 10.0 mi West 10.4 mph 21.9 mph N/A   Scattered Clouds
4:35 PM 93.2 °F 98.8 °F 69.8 °F 46% 29.84 in 10.0 mi WSW 12.7 mph 18.4 mph N/A   Scattered Clouds
4:55 PM 95.0 °F 99.5 °F 68.0 °F 41% 29.83 in 10.0 mi WSW 12.7 mph 18.4 mph N/A   Clear
5:15 PM 93.2 °F 98.8 °F 69.8 °F 46% 29.82 in 10.0 mi West 15.0 mph 20.7 mph N/A   Clear
5:35 PM 93.2 °F 97.7 °F 68.0 °F 44% 29.82 in 10.0 mi West 12.7 mph 19.6 mph N/A   Clear
5:55 PM 93.2 °F 98.8 °F 69.8 °F 46% 29.81 in 10.0 mi West 13.8 mph 23.0 mph N/A   Scattered Clouds
6:15 PM 91.4 °F 96.8 °F 69.8 °F 49% 29.80 in 10.0 mi West 13.8 mph 20.7 mph N/A   Clear
6:35 PM 91.4 °F 96.8 °F 69.8 °F 49% 29.80 in 10.0 mi West 10.4 mph 18.4 mph N/A   Clear
6:55 PM 91.4 °F 96.8 °F 69.8 °F 49% 29.81 in 10.0 mi West 9.2 mph 17.3 mph N/A   Clear
7:15 PM 91.4 °F 96.8 °F 69.8 °F 49% 29.81 in 10.0 mi West 8.1 mph - N/A   Clear
7:35 PM 89.6 °F 94.7 °F 69.8 °F 52% 29.81 in 10.0 mi West 9.2 mph - N/A   Scattered Clouds
7:55 PM 89.6 °F 94.7 °F 69.8 °F 52% 29.82 in 10.0 mi West 5.8 mph - N/A   Scattered Clouds
8:15 PM 87.8 °F 92.6 °F 69.8 °F 55% 29.82 in 10.0 mi West 3.5 mph - N/A   Clear
8:35 PM 86.0 °F 90.4 °F 69.8 °F 58% 29.83 in 10.0 mi West 4.6 mph - N/A   Clear
8:55 PM 84.2 °F 89.6 °F 71.6 °F 66% 29.83 in 10.0 mi WSW 4.6 mph - N/A   Clear
9:15 PM 84.2 °F 89.6 °F 71.6 °F 66% 29.83 in 10.0 mi SW 4.6 mph - N/A   Clear
9:35 PM 82.4 °F 87.2 °F 71.6 °F 70% 29.82 in 10.0 mi SW 4.6 mph - N/A   Clear
9:55 PM 82.4 °F 86.3 °F 69.8 °F 66% 29.83 in 10.0 mi WSW 3.5 mph - N/A   Clear
10:15 PM 82.4 °F 86.3 °F 69.8 °F 66% 29.82 in 10.0 mi WSW 5.8 mph - N/A   Clear
10:35 PM 82.4 °F 86.3 °F 69.8 °F 66% 29.82 in 10.0 mi WSW 8.1 mph - N/A   Clear
10:55 PM 82.4 °F 87.2 °F 71.6 °F 70% 29.84 in 10.0 mi West 9.2 mph - N/A   Clear
11:15 PM 84.2 °F 88.4 °F 69.8 °F 62% 29.82 in 10.0 mi WSW 9.2 mph 19.6 mph N/A   Clear
11:35 PM 84.2 °F 88.4 °F 69.8 °F 62% 29.81 in 10.0 mi West 10.4 mph 17.3 mph N/A   Clear
11:55 PM 84.2 °F 88.4 °F 69.8 °F 62% 29.79 in 10.0 mi West 15.0 mph 20.7 mph N/A   Clear